Time,TemperatureF,DewpointF,PressureIn,WindDirection,WindDirectionDegrees,WindSpeedMPH,WindSpeedGustMPH,Humidity,HourlyPrecipIn,Conditions,Clouds,dailyrainin,SoftwareType,DateUTC
2013-11-12 00:02:00,49.2,41.6,29.99,WSW,252,10.0,19.0,75,0.00,,---,0.00,VWS V14.00,2013-11-12 05:02:00,
2013-11-12 00:03:00,49.1,41.5,29.99,WSW,251,10.0,19.0,75,0.00,,---,0.00,VWS V14.00,2013-11-12 05:03:00,
2013-11-12 00:04:00,49.1,41.5,29.99,WSW,247,10.0,19.0,75,0.00,,---,0.00,VWS V14.00,2013-11-12 05:04:00,
2013-11-12 00:05:00,49.1,41.5,29.99,West,259,13.0,19.0,75,0.00,,---,0.00,VWS V14.00,2013-11-12 05:05:00,
2013-11-12 00:08:00,49.1,41.5,29.99,WSW,248,13.0,19.0,75,0.00,,---,0.00,VWS V14.00,2013-11-12 05:08:00,
2013-11-12 00:13:00,49.0,41.8,29.98,SW,229,11.0,19.0,76,0.00,,---,0.00,VWS V14.00,2013-11-12 05:13:00,
2013-11-12 00:18:00,49.0,41.8,29.98,WSW,255,12.0,19.0,76,0.00,,---,0.00,VWS V14.00,2013-11-12 05:18:00,
2013-11-12 00:23:00,49.1,41.9,29.98,WSW,245,11.0,19.0,76,0.00,,---,0.00,VWS V14.00,2013-11-12 05:23:00,
2013-11-12 00:28:00,49.0,41.8,29.97,West,264,11.0,19.0,76,0.00,,---,0.00,VWS V14.00,2013-11-12 05:28:00,
2013-11-12 00:33:00,49.0,41.8,29.97,WSW,239,7.0,15.0,76,0.00,,---,0.00,VWS V14.00,2013-11-12 05:33:00,
2013-11-12 00:38:00,49.1,41.9,29.97,WSW,241,9.0,16.0,76,0.00,,---,0.00,VWS V14.00,2013-11-12 05:38:00,
2013-11-12 00:43:00,49.1,41.9,29.97,WSW,252,10.0,16.0,76,0.00,,---,0.00,VWS V14.00,2013-11-12 05:43:00,
2013-11-12 00:49:00,49.2,41.6,29.97,West,263,12.0,16.0,75,0.00,,---,0.00,VWS V14.00,2013-11-12 05:49:00,
2013-11-12 00:54:00,49.2,42.0,29.97,WSW,245,8.0,16.0,76,0.00,,---,0.00,VWS V14.00,2013-11-12 05:54:00,
2013-11-12 00:59:00,49.1,41.9,29.97,WSW,247,11.0,16.0,76,0.00,,---,0.00,VWS V14.00,2013-11-12 05:59:00,
2013-11-12 01:04:00,49.1,41.9,29.97,WSW,252,9.0,15.0,76,0.00,,---,0.00,VWS V14.00,2013-11-12 06:04:00,
2013-11-12 01:09:00,49.2,42.0,29.96,WSW,254,10.0,15.0,76,0.00,,---,0.00,VWS V14.00,2013-11-12 06:09:00,
2013-11-12 01:14:00,49.2,41.6,29.96,West,266,11.0,15.0,75,0.00,,---,0.00,VWS V14.00,2013-11-12 06:14:00,
2013-11-12 01:19:00,49.5,41.6,29.96,WSW,244,10.0,15.0,74,0.00,,---,0.00,VWS V14.00,2013-11-12 06:19:00,
2013-11-12 01:24:00,49.6,41.3,29.96,WSW,258,11.0,15.0,73,0.00,,---,0.00,VWS V14.00,2013-11-12 06:24:00,
2013-11-12 01:29:00,49.8,41.2,29.96,WSW,249,10.0,16.0,72,0.00,,---,0.00,VWS V14.00,2013-11-12 06:29:00,
2013-11-12 01:34:00,50.0,41.0,29.96,SW,229,12.0,17.0,71,0.00,,---,0.00,VWS V14.00,2013-11-12 06:34:00,
2013-11-12 01:39:00,49.9,41.2,29.96,West,261,9.0,17.0,72,0.00,,---,0.00,VWS V14.00,2013-11-12 06:39:00,
2013-11-12 01:44:00,49.6,41.7,29.96,WSW,253,10.0,17.0,74,0.00,,---,0.00,VWS V14.00,2013-11-12 06:44:00,
2013-11-12 01:49:00,49.5,42.3,29.96,WSW,252,14.0,17.0,76,0.00,,---,0.00,VWS V14.00,2013-11-12 06:49:00,
2013-11-12 01:54:00,49.5,41.6,29.96,WSW,252,12.0,17.0,74,0.00,,---,0.00,VWS V14.00,2013-11-12 06:54:00,
2013-11-12 02:00:00,49.7,41.4,29.96,WSW,247,10.0,11.0,73,0.00,,---,0.00,VWS V14.00,2013-11-12 07:00:00,
2013-11-12 02:05:00,49.7,41.4,29.96,WSW,254,12.0,16.0,73,0.00,,---,0.00,VWS V14.00,2013-11-12 07:05:00,
2013-11-12 02:10:00,49.6,41.7,29.95,WSW,246,11.0,16.0,74,0.00,,---,0.00,VWS V14.00,2013-11-12 07:10:00,
2013-11-12 02:15:00,49.6,41.7,29.95,WSW,240,9.0,16.0,74,0.00,,---,0.00,VWS V14.00,2013-11-12 07:15:00,
2013-11-12 02:20:00,49.5,41.9,29.95,WSW,249,6.0,16.0,75,0.00,,---,0.00,VWS V14.00,2013-11-12 07:20:00,
2013-11-12 02:25:00,49.4,41.8,29.95,WSW,256,7.0,16.0,75,0.00,,---,0.00,VWS V14.00,2013-11-12 07:25:00,
2013-11-12 02:30:00,49.4,41.8,29.95,WSW,257,7.0,14.0,75,0.00,,---,0.00,VWS V14.00,2013-11-12 07:30:00,
2013-11-12 02:35:00,49.4,42.2,29.95,WSW,258,10.0,15.0,76,0.00,,---,0.00,VWS V14.00,2013-11-12 07:35:00,
2013-11-12 02:40:00,49.3,42.1,29.95,WSW,241,7.0,15.0,76,0.00,,---,0.00,VWS V14.00,2013-11-12 07:40:00,
2013-11-12 02:45:00,49.2,42.3,29.95,WSW,243,6.0,15.0,77,0.00,,---,0.00,VWS V14.00,2013-11-12 07:45:00,
2013-11-12 02:50:00,49.2,42.3,29.95,WSW,258,7.0,15.0,77,0.00,,---,0.00,VWS V14.00,2013-11-12 07:50:00,
2013-11-12 02:55:00,49.2,42.3,29.95,WSW,254,9.0,15.0,77,0.00,,---,0.00,VWS V14.00,2013-11-12 07:55:00,
2013-11-12 03:00:00,49.2,42.6,29.95,WSW,241,7.0,11.0,78,0.00,,---,0.00,VWS V14.00,2013-11-12 08:00:00,
2013-11-12 03:05:00,49.2,42.6,29.94,WSW,254,8.0,11.0,78,0.00,,---,0.00,VWS V14.00,2013-11-12 08:05:00,
2013-11-12 03:11:00,49.2,42.6,29.94,SW,230,7.0,11.0,78,0.00,,---,0.00,VWS V14.00,2013-11-12 08:11:00,
2013-11-12 03:16:00,49.1,42.5,29.94,WSW,253,9.0,11.0,78,0.00,,---,0.00,VWS V14.00,2013-11-12 08:16:00,
2013-11-12 03:21:00,49.1,42.5,29.93,WSW,243,9.0,11.0,78,0.00,,---,0.00,VWS V14.00,2013-11-12 08:21:00,
2013-11-12 03:26:00,49.1,42.5,29.93,WSW,253,6.0,11.0,78,0.00,,---,0.00,VWS V14.00,2013-11-12 08:26:00,
2013-11-12 03:31:00,49.1,42.2,29.93,SW,234,5.0,10.0,77,0.00,,---,0.00,VWS V14.00,2013-11-12 08:31:00,
2013-11-12 03:36:00,49.2,42.3,29.93,WSW,242,12.0,12.0,77,0.00,,---,0.00,VWS V14.00,2013-11-12 08:36:00,
2013-11-12 03:41:00,49.2,42.3,29.93,SW,231,7.0,12.0,77,0.00,,---,0.00,VWS V14.00,2013-11-12 08:41:00,
2013-11-12 03:46:00,49.1,42.5,29.93,SW,229,9.0,12.0,78,0.00,,---,0.00,VWS V14.00,2013-11-12 08:46:00,
2013-11-12 03:51:00,49.1,42.5,29.93,SW,235,6.0,12.0,78,0.00,,---,0.00,VWS V14.00,2013-11-12 08:51:00,
2013-11-12 03:56:00,49.0,42.5,29.93,WSW,238,6.0,12.0,78,0.00,,---,0.00,VWS V14.00,2013-11-12 08:56:00,
2013-11-12 04:01:00,49.0,42.5,29.93,SW,222,7.0,10.0,78,0.00,,---,0.00,VWS V14.00,2013-11-12 09:01:00,
2013-11-12 04:06:00,49.0,42.5,29.93,WSW,249,10.0,11.0,78,0.00,,---,0.00,VWS V14.00,2013-11-12 09:06:00,
2013-11-12 04:11:00,49.0,42.8,29.93,WSW,250,6.0,11.0,79,0.00,,---,0.00,VWS V14.00,2013-11-12 09:11:00,
2013-11-12 04:16:00,48.9,42.7,29.93,WSW,245,6.0,11.0,79,0.00,,---,0.00,VWS V14.00,2013-11-12 09:16:00,
2013-11-12 04:21:00,48.9,42.3,29.94,WSW,247,5.0,11.0,78,0.00,,---,0.00,VWS V14.00,2013-11-12 09:21:00,
2013-11-12 04:26:00,49.0,42.5,29.94,WSW,254,5.0,11.0,78,0.00,,---,0.00,VWS V14.00,2013-11-12 09:26:00,
2013-11-12 04:31:00,49.0,42.1,29.94,WSW,254,6.0,8.0,77,0.00,,---,0.00,VWS V14.00,2013-11-12 09:31:00,
2013-11-12 04:37:00,48.9,42.0,29.94,WSW,255,5.0,8.0,77,0.00,,---,0.00,VWS V14.00,2013-11-12 09:37:00,
2013-11-12 04:42:00,48.8,41.9,29.94,West,266,4.0,8.0,77,0.00,,---,0.00,VWS V14.00,2013-11-12 09:42:00,
2013-11-12 04:47:00,48.7,41.8,29.94,West,264,5.0,8.0,77,0.00,,---,0.00,VWS V14.00,2013-11-12 09:47:00,
2013-11-12 04:52:00,48.6,41.4,29.93,WSW,243,4.0,8.0,76,0.00,,---,0.00,VWS V14.00,2013-11-12 09:52:00,
2013-11-12 04:57:00,48.6,41.0,29.94,WSW,251,6.0,8.0,75,0.00,,---,0.00,VWS V14.00,2013-11-12 09:57:00,
2013-11-12 05:02:00,48.6,40.7,29.94,WSW,255,5.0,6.0,74,0.00,,---,0.00,VWS V14.00,2013-11-12 10:02:00,
2013-11-12 05:07:00,48.7,40.5,29.95,West,260,5.0,8.0,73,0.00,,---,0.00,VWS V14.00,2013-11-12 10:07:00,
2013-11-12 05:12:00,48.7,40.1,29.94,West,267,5.0,8.0,72,0.00,,---,0.00,VWS V14.00,2013-11-12 10:12:00,
2013-11-12 05:17:00,48.7,40.1,29.93,West,262,5.0,8.0,72,0.00,,---,0.00,VWS V14.00,2013-11-12 10:17:00,
2013-11-12 05:22:00,48.6,40.0,29.93,West,281,3.0,8.0,72,0.00,,---,0.00,VWS V14.00,2013-11-12 10:22:00,
2013-11-12 05:27:00,48.6,40.0,29.93,WSW,255,5.0,8.0,72,0.00,,---,0.00,VWS V14.00,2013-11-12 10:27:00,
2013-11-12 05:32:00,48.5,40.2,29.95,SW,235,4.0,7.0,73,0.00,,---,0.00,VWS V14.00,2013-11-12 10:32:00,
2013-11-12 05:37:00,48.5,40.2,29.94,WSW,255,4.0,7.0,73,0.00,,---,0.00,VWS V14.00,2013-11-12 10:37:00,
2013-11-12 05:42:00,48.4,39.8,29.95,WSW,256,5.0,7.0,72,0.00,,---,0.00,VWS V14.00,2013-11-12 10:42:00,
2013-11-12 05:47:00,48.4,39.8,29.95,WSW,258,5.0,7.0,72,0.00,,---,0.00,VWS V14.00,2013-11-12 10:47:00,
2013-11-12 05:52:00,48.4,39.8,29.95,WSW,251,5.0,7.0,72,0.00,,---,0.00,VWS V14.00,2013-11-12 10:52:00,
2013-11-12 05:58:00,48.3,39.7,29.95,West,266,4.0,7.0,72,0.00,,---,0.00,VWS V14.00,2013-11-12 10:58:00,
2013-11-12 06:03:00,48.3,40.1,29.95,West,267,3.0,7.0,73,0.00,,---,0.00,VWS V14.00,2013-11-12 11:03:00,
2013-11-12 06:08:00,48.3,40.1,29.95,West,264,4.0,7.0,73,0.00,,---,0.00,VWS V14.00,2013-11-12 11:08:00,
2013-11-12 06:13:00,48.3,40.1,29.96,West,267,4.0,7.0,73,0.00,,---,0.00,VWS V14.00,2013-11-12 11:13:00,
2013-11-12 06:18:00,48.2,40.0,29.96,West,268,3.0,7.0,73,0.00,,---,0.00,VWS V14.00,2013-11-12 11:18:00,
2013-11-12 06:23:00,48.2,39.6,29.96,West,280,5.0,7.0,72,0.00,,---,0.00,VWS V14.00,2013-11-12 11:23:00,
2013-11-12 06:28:00,48.2,40.0,29.97,West,274,5.0,7.0,73,0.00,,---,0.00,VWS V14.00,2013-11-12 11:28:00,
2013-11-12 06:33:00,48.2,40.3,29.97,West,278,3.0,5.0,74,0.00,,---,0.00,VWS V14.00,2013-11-12 11:33:00,
2013-11-12 06:38:00,48.2,40.0,29.97,WNW,286,5.0,6.0,73,0.00,,---,0.00,VWS V14.00,2013-11-12 11:38:00,
2013-11-12 06:43:00,48.1,40.9,29.97,NW,322,6.0,10.0,76,0.00,,---,0.00,VWS V14.00,2013-11-12 11:43:00,
2013-11-12 06:48:00,48.4,39.4,29.97,NW,324,10.0,14.0,71,0.00,,---,0.00,VWS V14.00,2013-11-12 11:48:00,
2013-11-12 06:53:00,48.6,40.0,29.98,NW,314,7.0,14.0,72,0.00,,---,0.00,VWS V14.00,2013-11-12 11:53:00,
2013-11-12 06:59:00,48.4,39.8,29.99,NNW,327,7.0,14.0,72,0.00,,---,0.00,VWS V14.00,2013-11-12 11:59:00,
2013-11-12 07:04:00,48.2,40.0,29.99,North,350,12.0,12.0,73,0.00,,---,0.00,VWS V14.00,2013-11-12 12:04:00,
2013-11-12 07:09:00,48.2,39.6,29.99,North,6,11.0,14.0,72,0.00,,---,0.00,VWS V14.00,2013-11-12 12:09:00,
2013-11-12 07:14:00,48.0,39.4,30.00,North,355,15.0,17.0,72,0.00,,---,0.00,VWS V14.00,2013-11-12 12:14:00,
2013-11-12 07:19:00,46.1,39.0,30.01,North,8,18.0,25.0,76,0.00,,---,0.00,VWS V14.00,2013-11-12 12:19:00,
2013-11-12 07:24:00,44.5,38.1,30.01,North,360,20.0,25.0,78,0.00,,---,0.00,VWS V14.00,2013-11-12 12:24:00,
2013-11-12 07:29:00,43.3,36.9,30.01,North,355,24.0,29.0,78,0.00,,---,0.00,VWS V14.00,2013-11-12 12:29:00,
2013-11-12 07:34:00,42.6,35.9,30.02,North,4,22.0,27.0,77,0.00,,---,0.00,VWS V14.00,2013-11-12 12:34:00,
2013-11-12 07:39:00,42.1,35.8,30.02,North,360,21.0,27.0,78,0.00,,---,0.00,VWS V14.00,2013-11-12 12:39:00,
2013-11-12 07:44:00,42.1,36.1,30.03,North,7,24.0,27.0,79,0.00,,---,0.00,VWS V14.00,2013-11-12 12:44:00,
2013-11-12 07:49:00,41.8,35.1,30.03,North,7,24.0,27.0,77,0.00,,---,0.00,VWS V14.00,2013-11-12 12:49:00,
2013-11-12 07:54:00,41.6,35.3,30.04,North,9,27.0,29.0,78,0.00,,---,0.00,VWS V14.00,2013-11-12 12:54:00,
2013-11-12 07:59:00,41.3,35.0,30.05,NNW,345,19.0,29.0,78,0.00,,---,0.00,VWS V14.00,2013-11-12 12:59:00,
2013-11-12 08:04:00,40.9,34.6,30.05,North,355,21.0,26.0,78,0.00,,---,0.00,VWS V14.00,2013-11-12 13:04:00,
2013-11-12 08:09:00,40.6,34.6,30.05,North,355,20.0,26.0,79,0.00,,---,0.00,VWS V14.00,2013-11-12 13:09:00,
2013-11-12 08:14:00,40.4,35.0,30.06,North,360,26.0,27.0,81,0.00,,---,0.00,VWS V14.00,2013-11-12 13:14:00,
2013-11-12 08:20:00,40.1,34.4,30.06,North,4,23.0,27.0,80,0.00,,---,0.00,VWS V14.00,2013-11-12 13:20:00,
2013-11-12 08:25:00,39.3,33.7,30.07,NNE,12,30.0,35.0,80,0.00,,---,0.00,VWS V14.00,2013-11-12 13:25:00,
2013-11-12 08:30:00,38.6,33.0,30.08,NNE,14,28.0,28.0,80,0.00,,---,0.00,VWS V14.00,2013-11-12 13:30:00,
2013-11-12 08:35:00,37.8,32.5,30.08,NNE,14,28.0,32.0,81,0.00,,---,0.00,VWS V14.00,2013-11-12 13:35:00,
2013-11-12 08:40:00,37.5,32.2,30.08,North,10,28.0,33.0,81,0.00,,---,0.00,VWS V14.00,2013-11-12 13:40:00,
2013-11-12 08:45:00,37.3,32.3,30.08,North,355,27.0,33.0,82,0.00,,---,0.00,VWS V14.00,2013-11-12 13:45:00,
2013-11-12 08:50:00,37.0,32.0,30.08,North,360,24.0,33.0,82,0.00,,---,0.00,VWS V14.00,2013-11-12 13:50:00,
2013-11-12 08:55:00,36.9,31.9,30.08,North,360,23.0,33.0,82,0.00,,---,0.00,VWS V14.00,2013-11-12 13:55:00,
2013-11-12 09:00:00,36.5,31.8,30.09,North,4,29.0,30.0,83,0.00,,---,0.00,VWS V14.00,2013-11-12 14:00:00,
2013-11-12 09:05:00,36.0,31.4,30.10,NNE,16,21.0,33.0,83,0.00,,---,0.00,VWS V14.00,2013-11-12 14:05:00,
2013-11-12 09:10:00,36.3,32.5,30.10,NNE,21,24.0,33.0,86,0.00,,---,0.00,VWS V14.00,2013-11-12 14:10:00,
2013-11-12 09:15:00,35.8,31.1,30.10,North,10,23.0,33.0,83,0.00,,---,0.00,VWS V14.00,2013-11-12 14:15:00,
2013-11-12 09:20:00,35.8,31.7,30.10,North,4,21.0,33.0,85,0.00,,---,0.00,VWS V14.00,2013-11-12 14:20:00,
2013-11-12 09:25:00,35.6,31.8,30.10,NNE,14,22.0,33.0,86,0.00,,---,0.00,VWS V14.00,2013-11-12 14:25:00,
2013-11-12 09:31:00,35.4,31.9,30.10,North,8,24.0,26.0,87,0.00,,---,0.00,VWS V14.00,2013-11-12 14:31:00,
2013-11-12 09:36:00,35.1,31.9,30.11,North,6,17.0,26.0,88,0.00,,---,0.00,VWS V14.00,2013-11-12 14:36:00,
2013-11-12 09:41:00,35.0,32.4,30.11,North,8,21.0,26.0,90,0.00,,---,0.00,VWS V14.00,2013-11-12 14:41:00,
2013-11-12 09:46:00,34.8,32.2,30.11,NNE,17,18.0,26.0,90,0.00,,---,0.00,VWS V14.00,2013-11-12 14:46:00,
2013-11-12 09:51:00,34.9,32.0,30.12,North,8,20.0,26.0,89,0.00,,---,0.00,VWS V14.00,2013-11-12 14:51:00,
2013-11-12 09:56:00,35.0,32.1,30.12,North,360,19.0,26.0,89,0.00,,---,0.00,VWS V14.00,2013-11-12 14:56:00,
2013-11-12 10:01:00,34.9,31.1,30.11,North,350,18.0,25.0,86,0.00,,---,0.00,VWS V14.00,2013-11-12 15:01:00,
2013-11-12 10:06:00,34.9,30.6,30.12,NNE,14,21.0,30.0,84,0.00,,---,0.00,VWS V14.00,2013-11-12 15:06:00,
2013-11-12 10:11:00,35.1,30.5,30.12,North,7,22.0,30.0,83,0.00,,---,0.00,VWS V14.00,2013-11-12 15:11:00,
2013-11-12 10:16:00,35.2,30.9,30.12,North,4,21.0,30.0,84,0.00,,---,0.00,VWS V14.00,2013-11-12 15:16:00,
2013-11-12 10:21:00,35.2,30.9,30.12,North,360,25.0,30.0,84,0.00,,---,0.00,VWS V14.00,2013-11-12 15:21:00,
2013-11-12 10:26:00,35.4,31.1,30.13,North,360,24.0,30.0,84,0.00,,---,0.00,VWS V14.00,2013-11-12 15:26:00,
2013-11-12 10:31:00,35.1,30.5,30.14,North,5,21.0,27.0,83,0.00,,---,0.00,VWS V14.00,2013-11-12 15:31:00,
2013-11-12 10:36:00,34.9,30.3,30.14,North,6,21.0,27.0,83,0.00,,---,0.00,VWS V14.00,2013-11-12 15:36:00,
2013-11-12 10:42:00,34.9,30.6,30.14,North,360,19.0,27.0,84,0.00,,---,0.00,VWS V14.00,2013-11-12 15:42:00,
2013-11-12 10:47:00,34.9,30.3,30.14,North,360,20.0,27.0,83,0.00,,---,0.00,VWS V14.00,2013-11-12 15:47:00,
2013-11-12 10:52:00,34.9,29.7,30.13,North,360,24.0,28.0,81,0.00,,---,0.00,VWS V14.00,2013-11-12 15:52:00,
2013-11-12 10:57:00,34.5,29.3,30.13,North,355,20.0,28.0,81,0.00,,---,0.00,VWS V14.00,2013-11-12 15:57:00,
2013-11-12 11:02:00,34.4,29.8,30.13,North,360,20.0,26.0,83,0.00,,---,0.00,VWS V14.00,2013-11-12 16:02:00,
2013-11-12 11:07:00,34.3,29.7,30.13,North,360,20.0,26.0,83,0.00,,---,0.00,VWS V14.00,2013-11-12 16:07:00,
2013-11-12 11:12:00,34.3,29.7,30.13,North,4,19.0,26.0,83,0.00,,---,0.00,VWS V14.00,2013-11-12 16:12:00,
2013-11-12 11:17:00,34.0,29.4,30.13,North,4,16.0,26.0,83,0.00,,---,0.00,VWS V14.00,2013-11-12 16:17:00,
2013-11-12 11:22:00,33.9,29.6,30.13,North,4,12.0,26.0,84,0.00,,---,0.00,VWS V14.00,2013-11-12 16:22:00,
2013-11-12 11:27:00,34.2,29.9,30.13,North,355,15.0,26.0,84,0.00,,---,0.00,VWS V14.00,2013-11-12 16:27:00,
2013-11-12 11:32:00,34.3,30.0,30.13,North,360,14.0,16.0,84,0.00,,---,0.00,VWS V14.00,2013-11-12 16:32:00,
2013-11-12 11:37:00,34.4,30.1,30.12,NNE,15,12.0,18.0,84,0.00,,---,0.00,VWS V14.00,2013-11-12 16:37:00,
2013-11-12 11:42:00,34.7,30.4,30.12,NNW,337,15.0,19.0,84,0.00,,---,0.00,VWS V14.00,2013-11-12 16:42:00,
2013-11-12 11:47:00,34.6,29.4,30.12,North,360,16.0,19.0,81,0.00,,---,0.00,VWS V14.00,2013-11-12 16:47:00,
2013-11-12 11:53:00,34.9,30.0,30.12,North,360,14.0,19.0,82,0.00,,---,0.00,VWS V14.00,2013-11-12 16:53:00,
2013-11-12 11:58:00,35.3,30.1,30.12,NNW,336,17.0,19.0,81,0.00,,---,0.00,VWS V14.00,2013-11-12 16:58:00,
2013-11-12 12:03:00,35.5,30.3,30.12,North,355,15.0,17.0,81,0.00,,---,0.00,VWS V14.00,2013-11-12 17:03:00,
2013-11-12 12:08:00,35.6,29.7,30.11,NNW,343,18.0,19.0,79,0.00,,---,0.00,VWS V14.00,2013-11-12 17:08:00,
2013-11-12 12:13:00,35.9,30.0,30.11,North,4,16.0,19.0,79,0.00,,---,0.00,VWS V14.00,2013-11-12 17:13:00,
2013-11-12 12:18:00,36.0,29.8,30.11,North,350,14.0,19.0,78,0.00,,---,0.00,VWS V14.00,2013-11-12 17:18:00,
2013-11-12 12:23:00,36.2,29.4,30.11,NNW,346,17.0,21.0,76,0.00,,---,0.00,VWS V14.00,2013-11-12 17:23:00,
2013-11-12 12:28:00,36.6,29.1,30.11,North,350,15.0,21.0,74,0.00,,---,0.00,VWS V14.00,2013-11-12 17:28:00,
2013-11-12 12:33:00,36.7,28.9,30.11,NNW,343,17.0,21.0,73,0.00,,---,0.00,VWS V14.00,2013-11-12 17:33:00,
2013-11-12 12:38:00,36.8,28.3,30.12,NNW,345,14.0,21.0,71,0.00,,---,0.00,VWS V14.00,2013-11-12 17:38:00,
2013-11-12 12:43:00,37.1,28.9,30.11,NNW,337,20.0,23.0,72,0.00,,---,0.00,VWS V14.00,2013-11-12 17:43:00,
2013-11-12 12:48:00,37.0,28.1,30.12,North,355,17.0,23.0,70,0.00,,---,0.00,VWS V14.00,2013-11-12 17:48:00,
2013-11-12 12:53:00,37.1,26.8,30.12,North,9,18.0,25.0,66,0.00,,---,0.00,VWS V14.00,2013-11-12 17:53:00,
2013-11-12 12:58:00,37.1,26.1,30.11,North,355,15.0,25.0,64,0.00,,---,0.00,VWS V14.00,2013-11-12 17:58:00,
2013-11-12 13:03:00,37.1,26.4,30.11,North,360,18.0,22.0,65,0.00,,---,0.00,VWS V14.00,2013-11-12 18:03:00,
2013-11-12 13:08:00,37.2,25.4,30.11,North,355,21.0,26.0,62,0.00,,---,0.00,VWS V14.00,2013-11-12 18:08:00,
2013-11-12 13:13:00,37.3,25.5,30.11,NNE,13,15.0,26.0,62,0.00,,---,0.00,VWS V14.00,2013-11-12 18:13:00,
2013-11-12 13:19:00,37.3,25.9,30.11,NNW,343,13.0,26.0,63,0.00,,---,0.00,VWS V14.00,2013-11-12 18:19:00,
2013-11-12 13:24:00,37.3,25.1,30.11,North,350,19.0,26.0,61,0.00,,---,0.00,VWS V14.00,2013-11-12 18:24:00,
2013-11-12 13:29:00,37.6,26.2,30.11,North,360,19.0,26.0,63,0.00,,---,0.00,VWS V14.00,2013-11-12 18:29:00,
2013-11-12 13:34:00,37.5,24.9,30.12,North,350,17.0,25.0,60,0.00,,---,0.00,VWS V14.00,2013-11-12 18:34:00,
2013-11-12 13:39:00,37.4,25.2,30.12,NNW,343,16.0,25.0,61,0.00,,---,0.00,VWS V14.00,2013-11-12 18:39:00,
2013-11-12 13:44:00,37.4,24.0,30.12,North,350,19.0,25.0,58,0.00,,---,0.00,VWS V14.00,2013-11-12 18:44:00,
2013-11-12 13:49:00,37.5,24.1,30.12,North,355,22.0,25.0,58,0.00,,---,0.00,VWS V14.00,2013-11-12 18:49:00,
2013-11-12 13:54:00,37.4,23.6,30.12,North,360,19.0,25.0,57,0.00,,---,0.00,VWS V14.00,2013-11-12 18:54:00,
2013-11-12 13:59:00,37.4,24.0,30.12,North,355,24.0,25.0,58,0.00,,---,0.00,VWS V14.00,2013-11-12 18:59:00,
2013-11-12 14:04:00,37.4,22.7,30.13,North,4,18.0,26.0,55,0.00,,---,0.00,VWS V14.00,2013-11-12 19:04:00,
2013-11-12 14:09:00,37.3,23.9,30.14,NNW,344,17.0,26.0,58,0.00,,---,0.00,VWS V14.00,2013-11-12 19:09:00,
2013-11-12 14:15:00,37.4,24.4,30.14,North,360,22.0,26.0,59,0.00,,---,0.00,VWS V14.00,2013-11-12 19:15:00,
2013-11-12 14:20:00,37.4,24.0,30.14,North,360,20.0,26.0,58,0.00,,---,0.00,VWS V14.00,2013-11-12 19:20:00,
2013-11-12 14:25:00,37.4,23.6,30.14,NNW,342,18.0,26.0,57,0.00,,---,0.00,VWS V14.00,2013-11-12 19:25:00,
2013-11-12 14:30:00,37.2,23.4,30.14,North,350,16.0,19.0,57,0.00,,---,0.00,VWS V14.00,2013-11-12 19:30:00,
2013-11-12 14:35:00,37.3,23.9,30.14,North,360,20.0,25.0,58,0.00,,---,0.00,VWS V14.00,2013-11-12 19:35:00,
2013-11-12 14:40:00,37.3,23.5,30.14,North,350,21.0,25.0,57,0.00,,---,0.00,VWS V14.00,2013-11-12 19:40:00,
2013-11-12 14:45:00,37.1,23.7,30.15,North,350,16.0,25.0,58,0.00,,---,0.00,VWS V14.00,2013-11-12 19:45:00,
2013-11-12 14:50:00,37.3,23.9,30.15,North,350,20.0,26.0,58,0.00,,---,0.00,VWS V14.00,2013-11-12 19:50:00,
2013-11-12 14:55:00,37.3,22.6,30.15,North,360,18.0,26.0,55,0.00,,---,0.00,VWS V14.00,2013-11-12 19:55:00,
2013-11-12 15:00:00,37.1,22.4,30.16,North,360,15.0,20.0,55,0.00,,---,0.00,VWS V14.00,2013-11-12 20:00:00,
2013-11-12 15:05:00,37.2,22.5,30.16,North,6,23.0,25.0,55,0.00,,---,0.00,VWS V14.00,2013-11-12 20:05:00,
2013-11-12 15:10:00,37.1,22.0,30.16,North,8,23.0,27.0,54,0.00,,---,0.00,VWS V14.00,2013-11-12 20:10:00,
2013-11-12 15:15:00,37.1,22.4,30.15,North,9,19.0,27.0,55,0.00,,---,0.00,VWS V14.00,2013-11-12 20:15:00,
2013-11-12 15:20:00,37.1,22.4,30.15,NNW,345,19.0,27.0,55,0.00,,---,0.00,VWS V14.00,2013-11-12 20:20:00,
2013-11-12 15:25:00,37.1,22.4,30.16,North,355,21.0,27.0,55,0.00,,---,0.00,VWS V14.00,2013-11-12 20:25:00,
2013-11-12 15:30:00,37.1,23.3,30.16,North,360,17.0,22.0,57,0.00,,---,0.00,VWS V14.00,2013-11-12 20:30:00,
2013-11-12 15:36:00,37.1,22.9,30.17,North,355,15.0,24.0,56,0.00,,---,0.00,VWS V14.00,2013-11-12 20:36:00,
2013-11-12 15:41:00,37.2,24.6,30.17,North,360,14.0,24.0,60,0.00,,---,0.00,VWS V14.00,2013-11-12 20:41:00,
2013-11-12 15:46:00,37.0,22.8,30.17,North,355,16.0,24.0,56,0.00,,---,0.00,VWS V14.00,2013-11-12 20:46:00,
2013-11-12 15:51:00,37.0,22.8,30.17,NNW,341,17.0,24.0,56,0.00,,---,0.00,VWS V14.00,2013-11-12 20:51:00,
2013-11-12 15:56:00,37.1,22.9,30.17,North,360,16.0,24.0,56,0.00,,---,0.00,VWS V14.00,2013-11-12 20:56:00,
2013-11-12 16:01:00,37.1,22.9,30.17,NNE,12,25.0,25.0,56,0.00,,---,0.00,VWS V14.00,2013-11-12 21:01:00,
2013-11-12 16:06:00,36.9,23.1,30.17,North,360,19.0,25.0,57,0.00,,---,0.00,VWS V14.00,2013-11-12 21:06:00,
2013-11-12 16:11:00,36.9,22.3,30.17,North,355,21.0,25.0,55,0.00,,---,0.00,VWS V14.00,2013-11-12 21:11:00,
2013-11-12 16:16:00,36.8,22.6,30.17,North,350,18.0,25.0,56,0.00,,---,0.00,VWS V14.00,2013-11-12 21:16:00,
2013-11-12 16:21:00,36.7,23.7,30.17,North,350,18.0,26.0,59,0.00,,---,0.00,VWS V14.00,2013-11-12 21:21:00,
2013-11-12 16:26:00,36.5,21.9,30.17,North,355,21.0,27.0,55,0.00,,---,0.00,VWS V14.00,2013-11-12 21:26:00,
2013-11-12 16:31:00,36.7,23.7,30.17,North,360,19.0,25.0,59,0.00,,---,0.00,VWS V14.00,2013-11-12 21:31:00,
2013-11-12 16:36:00,36.9,25.1,30.18,North,350,19.0,25.0,62,0.00,,---,0.00,VWS V14.00,2013-11-12 21:36:00,
2013-11-12 16:41:00,36.5,23.1,30.18,North,360,19.0,25.0,58,0.00,,---,0.00,VWS V14.00,2013-11-12 21:41:00,
2013-11-12 16:46:00,36.4,22.6,30.18,NNW,341,18.0,25.0,57,0.00,,---,0.00,VWS V14.00,2013-11-12 21:46:00,
2013-11-12 16:51:00,36.3,23.0,30.18,NNW,341,19.0,25.0,58,0.00,,---,0.00,VWS V14.00,2013-11-12 21:51:00,
2013-11-12 16:56:00,36.2,23.7,30.18,North,360,14.0,25.0,60,0.00,,---,0.00,VWS V14.00,2013-11-12 21:56:00,
2013-11-12 17:02:00,36.2,22.5,30.19,North,4,18.0,21.0,57,0.00,,---,0.00,VWS V14.00,2013-11-12 22:02:00,
2013-11-12 17:07:00,36.2,23.3,30.19,NNW,346,16.0,21.0,59,0.00,,---,0.00,VWS V14.00,2013-11-12 22:07:00,
2013-11-12 17:12:00,36.1,23.6,30.19,North,360,16.0,21.0,60,0.00,,---,0.00,VWS V14.00,2013-11-12 22:12:00,
2013-11-12 17:17:00,36.1,23.6,30.19,NNW,343,17.0,21.0,60,0.00,,---,0.00,VWS V14.00,2013-11-12 22:17:00,
2013-11-12 17:22:00,36.0,22.7,30.19,NNW,346,16.0,21.0,58,0.00,,---,0.00,VWS V14.00,2013-11-12 22:22:00,
2013-11-12 17:27:00,36.0,23.5,30.19,North,350,13.0,21.0,60,0.00,,---,0.00,VWS V14.00,2013-11-12 22:27:00,
2013-11-12 17:32:00,36.0,23.9,30.19,NNW,337,13.0,20.0,61,0.00,,---,0.00,VWS V14.00,2013-11-12 22:32:00,
2013-11-12 17:37:00,36.2,24.1,30.20,NNW,336,14.0,20.0,61,0.00,,---,0.00,VWS V14.00,2013-11-12 22:37:00,
2013-11-12 17:42:00,35.9,22.6,30.20,North,350,14.0,20.0,58,0.00,,---,0.00,VWS V14.00,2013-11-12 22:42:00,
2013-11-12 17:47:00,36.1,23.6,30.20,North,355,19.0,20.0,60,0.00,,---,0.00,VWS V14.00,2013-11-12 22:47:00,
2013-11-12 17:52:00,36.0,23.5,30.20,North,350,16.0,20.0,60,0.00,,---,0.00,VWS V14.00,2013-11-12 22:52:00,
2013-11-12 17:57:00,36.1,23.6,30.21,NNW,338,14.0,20.0,60,0.00,,---,0.00,VWS V14.00,2013-11-12 22:57:00,
2013-11-12 18:02:00,35.9,22.6,30.21,North,355,16.0,19.0,58,0.00,,---,0.00,VWS V14.00,2013-11-12 23:02:00,
2013-11-12 18:07:00,35.8,22.9,30.20,NNW,345,15.0,19.0,59,0.00,,---,0.00,VWS V14.00,2013-11-12 23:07:00,
2013-11-12 18:12:00,35.9,22.6,30.21,North,350,18.0,21.0,58,0.00,,---,0.00,VWS V14.00,2013-11-12 23:12:00,
2013-11-12 18:17:00,36.0,23.1,30.20,North,355,18.0,21.0,59,0.00,,---,0.00,VWS V14.00,2013-11-12 23:17:00,
2013-11-12 18:22:00,35.9,23.4,30.21,NNW,341,15.0,21.0,60,0.00,,---,0.00,VWS V14.00,2013-11-12 23:22:00,
2013-11-12 18:28:00,36.0,23.1,30.21,North,355,17.0,21.0,59,0.00,,---,0.00,VWS V14.00,2013-11-12 23:28:00,
2013-11-12 18:33:00,36.0,23.1,30.21,North,350,16.0,22.0,59,0.00,,---,0.00,VWS V14.00,2013-11-12 23:33:00,
2013-11-12 18:38:00,36.2,23.7,30.21,NNW,345,17.0,22.0,60,0.00,,---,0.00,VWS V14.00,2013-11-12 23:38:00,
2013-11-12 18:43:00,36.1,23.2,30.22,NNW,346,17.0,22.0,59,0.00,,---,0.00,VWS V14.00,2013-11-12 23:43:00,
2013-11-12 18:48:00,36.0,23.5,30.22,NNW,345,15.0,22.0,60,0.00,,---,0.00,VWS V14.00,2013-11-12 23:48:00,
2013-11-12 18:53:00,36.0,23.1,30.22,North,350,14.0,22.0,59,0.00,,---,0.00,VWS V14.00,2013-11-12 23:53:00,
2013-11-12 18:59:00,36.1,23.6,30.23,North,6,19.0,19.0,60,0.00,,---,0.00,VWS V14.00,2013-11-12 23:59:00,
2013-11-12 19:04:00,36.1,22.8,30.22,North,355,21.0,22.0,58,0.00,,---,0.00,VWS V14.00,2013-11-13 00:04:00,
2013-11-12 19:09:00,36.0,22.7,30.22,North,360,18.0,22.0,58,0.00,,---,0.00,VWS V14.00,2013-11-13 00:09:00,
2013-11-12 19:15:00,36.2,24.8,30.22,NNW,342,15.0,22.0,63,0.00,,---,0.00,VWS V14.00,2013-11-13 00:15:00,
2013-11-12 19:20:00,36.1,24.0,30.23,North,350,17.0,22.0,61,0.00,,---,0.00,VWS V14.00,2013-11-13 00:20:00,
2013-11-12 19:25:00,35.8,22.5,30.23,North,355,16.0,22.0,58,0.00,,---,0.00,VWS V14.00,2013-11-13 00:25:00,
2013-11-12 19:34:00,35.8,23.7,30.23,North,0,17.0,22.0,61,0.00,,---,0.00,VWS V14.00,2013-11-13 00:34:00,
2013-11-12 19:39:00,35.7,22.0,30.24,NNE,14,18.0,26.0,57,0.00,,---,0.00,VWS V14.00,2013-11-13 00:39:00,
2013-11-12 19:44:00,35.8,22.9,30.24,North,4,19.0,26.0,59,0.00,,---,0.00,VWS V14.00,2013-11-13 00:44:00,
2013-11-12 19:49:00,35.9,24.5,30.24,North,5,21.0,26.0,63,0.00,,---,0.00,VWS V14.00,2013-11-13 00:49:00,
2013-11-12 19:54:00,35.7,22.8,30.24,North,360,15.0,26.0,59,0.00,,---,0.00,VWS V14.00,2013-11-13 00:54:00,
2013-11-12 19:59:00,35.7,23.6,30.24,North,350,22.0,26.0,61,0.00,,---,0.00,VWS V14.00,2013-11-13 00:59:00,
2013-11-12 20:04:00,35.7,23.6,30.24,North,350,23.0,24.0,61,0.00,,---,0.00,VWS V14.00,2013-11-13 01:04:00,
2013-11-12 20:10:00,35.5,22.2,30.24,NNW,345,19.0,24.0,58,0.00,,---,0.00,VWS V14.00,2013-11-13 01:10:00,
2013-11-12 20:15:00,35.6,23.9,30.24,North,350,22.0,26.0,62,0.00,,---,0.00,VWS V14.00,2013-11-13 01:15:00,
2013-11-12 20:20:00,35.5,23.4,30.24,North,360,21.0,27.0,61,0.00,,---,0.00,VWS V14.00,2013-11-13 01:20:00,
2013-11-12 20:25:00,35.5,24.5,30.25,NNW,344,18.0,27.0,64,0.00,,---,0.00,VWS V14.00,2013-11-13 01:25:00,
2013-11-12 20:30:00,35.5,22.6,30.25,North,350,20.0,21.0,59,0.00,,---,0.00,VWS V14.00,2013-11-13 01:30:00,
2013-11-12 20:35:00,35.3,22.8,30.26,NNE,13,21.0,25.0,60,0.00,,---,0.00,VWS V14.00,2013-11-13 01:35:00,
2013-11-12 20:40:00,35.2,23.1,30.26,North,360,21.0,25.0,61,0.00,,---,0.00,VWS V14.00,2013-11-13 01:40:00,
2013-11-12 20:45:00,35.3,23.6,30.26,North,11,22.0,26.0,62,0.00,,---,0.00,VWS V14.00,2013-11-13 01:45:00,
2013-11-12 20:50:00,35.2,23.1,30.26,North,350,20.0,27.0,61,0.00,,---,0.00,VWS V14.00,2013-11-13 01:50:00,
2013-11-12 20:55:00,35.3,22.8,30.26,NNW,345,20.0,27.0,60,0.00,,---,0.00,VWS V14.00,2013-11-13 01:55:00,
2013-11-12 21:00:00,35.1,22.6,30.25,North,350,20.0,24.0,60,0.00,,---,0.00,VWS V14.00,2013-11-13 02:00:00,
2013-11-12 21:05:00,34.9,21.6,30.26,North,4,19.0,24.0,58,0.00,,---,0.00,VWS V14.00,2013-11-13 02:05:00,
2013-11-12 21:11:00,34.9,22.4,30.26,North,360,20.0,27.0,60,0.00,,---,0.00,VWS V14.00,2013-11-13 02:11:00,
2013-11-12 21:16:00,35.1,23.0,30.26,North,360,20.0,27.0,61,0.00,,---,0.00,VWS V14.00,2013-11-13 02:16:00,
2013-11-12 21:21:00,34.8,21.1,30.26,North,355,20.0,27.0,57,0.00,,---,0.00,VWS V14.00,2013-11-13 02:21:00,
2013-11-12 21:26:00,34.8,23.1,30.26,North,355,20.0,27.0,62,0.00,,---,0.00,VWS V14.00,2013-11-13 02:26:00,
2013-11-12 21:31:00,34.9,22.8,30.26,North,350,16.0,21.0,61,0.00,,---,0.00,VWS V14.00,2013-11-13 02:31:00,
2013-11-12 21:36:00,34.5,21.3,30.26,North,350,16.0,22.0,58,0.00,,---,0.00,VWS V14.00,2013-11-13 02:36:00,
2013-11-12 21:41:00,34.4,22.0,30.26,North,355,13.0,23.0,60,0.00,,---,0.00,VWS V14.00,2013-11-13 02:41:00,
2013-11-12 21:46:00,34.4,21.6,30.26,North,350,20.0,23.0,59,0.00,,---,0.00,VWS V14.00,2013-11-13 02:46:00,
2013-11-12 21:51:00,34.3,22.3,30.26,NNW,345,16.0,23.0,61,0.00,,---,0.00,VWS V14.00,2013-11-13 02:51:00,
2013-11-12 21:56:00,34.3,22.3,30.26,North,10,20.0,23.0,61,0.00,,---,0.00,VWS V14.00,2013-11-13 02:56:00,
2013-11-12 22:01:00,34.4,22.4,30.26,NNW,338,14.0,20.0,61,0.00,,---,0.00,VWS V14.00,2013-11-13 03:01:00,
2013-11-12 22:07:00,34.2,21.0,30.26,North,350,17.0,22.0,58,0.00,,---,0.00,VWS V14.00,2013-11-13 03:07:00,
2013-11-12 22:12:00,34.1,21.3,30.26,North,7,16.0,23.0,59,0.00,,---,0.00,VWS V14.00,2013-11-13 03:12:00,
2013-11-12 22:17:00,34.0,22.0,30.26,North,350,18.0,23.0,61,0.00,,---,0.00,VWS V14.00,2013-11-13 03:17:00,
2013-11-12 22:22:00,34.0,21.6,30.26,North,350,16.0,23.0,60,0.00,,---,0.00,VWS V14.00,2013-11-13 03:22:00,
2013-11-12 22:27:00,33.7,20.5,30.26,NNW,335,19.0,23.0,58,0.00,,---,0.00,VWS V14.00,2013-11-13 03:27:00,
2013-11-12 22:32:00,33.7,21.7,30.27,NNW,339,16.0,19.0,61,0.00,,---,0.00,VWS V14.00,2013-11-13 03:32:00,
2013-11-12 22:37:00,33.6,22.0,30.26,NNW,328,15.0,20.0,62,0.00,,---,0.00,VWS V14.00,2013-11-13 03:37:00,
2013-11-12 22:42:00,33.5,20.7,30.26,NNW,335,17.0,21.0,59,0.00,,---,0.00,VWS V14.00,2013-11-13 03:42:00,
2013-11-12 22:47:00,33.4,22.2,30.27,NNW,341,17.0,21.0,63,0.00,,---,0.00,VWS V14.00,2013-11-13 03:47:00,
2013-11-12 22:52:00,33.3,21.3,30.26,North,350,16.0,21.0,61,0.00,,---,0.00,VWS V14.00,2013-11-13 03:52:00,
2013-11-12 22:58:00,33.2,20.4,30.27,NNW,339,16.0,21.0,59,0.00,,---,0.00,VWS V14.00,2013-11-13 03:58:00,
2013-11-12 23:03:00,33.0,21.4,30.27,North,350,15.0,21.0,62,0.00,,---,0.00,VWS V14.00,2013-11-13 04:03:00,
2013-11-12 23:08:00,32.9,21.3,30.27,NNW,342,14.0,21.0,62,0.00,,---,0.00,VWS V14.00,2013-11-13 04:08:00,
2013-11-12 23:13:00,32.6,20.7,30.27,North,350,18.0,21.0,61,0.00,,---,0.00,VWS V14.00,2013-11-13 04:13:00,
2013-11-12 23:18:00,32.8,22.3,30.27,NNW,339,16.0,21.0,65,0.00,,---,0.00,VWS V14.00,2013-11-13 04:18:00,
2013-11-12 23:23:00,32.6,21.0,30.27,NNW,335,13.0,21.0,62,0.00,,---,0.00,VWS V14.00,2013-11-13 04:23:00,
2013-11-12 23:28:00,32.6,21.4,30.27,NNW,338,14.0,21.0,63,0.00,,---,0.00,VWS V14.00,2013-11-13 04:28:00,
2013-11-12 23:33:00,32.4,20.9,30.27,NNW,337,15.0,20.0,62,0.00,,---,0.00,VWS V14.00,2013-11-13 04:33:00,
2013-11-12 23:38:00,32.5,22.4,30.27,NNW,330,13.0,20.0,66,0.00,,---,0.00,VWS V14.00,2013-11-13 04:38:00,
2013-11-12 23:43:00,32.5,21.7,30.27,NNW,338,12.0,20.0,64,0.00,,---,0.00,VWS V14.00,2013-11-13 04:43:00,
2013-11-12 23:49:00,32.1,20.6,30.27,NNW,343,15.0,20.0,62,0.00,,---,0.00,VWS V14.00,2013-11-13 04:49:00,
2013-11-12 23:54:00,32.1,21.7,30.27,NNW,335,15.0,20.0,65,0.00,,---,0.00,VWS V14.00,2013-11-13 04:54:00,
2013-11-12 23:59:00,32.0,21.6,30.27,NNW,337,12.0,20.0,65,0.00,,---,0.00,VWS V14.00,2013-11-13 04:59:00,